Theta_e
350 353 355 350 349 348 344 343 341 345 344 344 342 341 339 340 342 341 340 350 349 350 351 349 350 352 353 351 352 350 349 350 350 348 348 346 347 346 346 346 345 345 344
357 356 355 355 351 349 346 344 344 344 342 341 342 343 342 343 345 344 341 344 348 348 350 352 351 351 353 352 351 349 347 348 349 348 348 347 346 346 345 345 344 344 343
360 355 354 350 350 348 348 347 347 347 344 345 343 345 345 346 345 345 345 342 344 347 347 349 350 352 354 353 351 350 347 346 348 347 347 347 345 345 345 344 344 344 343
359 360 352 350 349 348 345 342 343 339 340 341 341 343 343 345 346 348 346 345 345 345 345 347 347 350 352 353 350 349 348 346 345 345 346 347 346 345 345 344 344 344 342
355 355 350 350 351 346 343 343 343 343 341 344 342 347 348 349 349 348 346 347 347 345 341 344 346 347 348 351 350 349 349 346 344 345 344 346 347 346 345 345 343 343 342
353 353 351 349 350 342 341 342 343 346 344 345 342 342 348 350 350 347 347 348 347 346 343 347 343 343 347 348 349 349 349 348 345 344 344 344 344 346 346 345 343 342 342
348 349 348 347 346 341 339 345 344 346 342 345 345 344 347 350 347 346 349 347 346 345 345 347 345 346 345 346 346 348 349 349 348 345 343 342 344 345 345 345 343 342 341
346 345 345 342 343 342 344 344 345 341 344 345 341 342 335 340 345 345 345 345 346 345 343 347 346 344 345 344 343 346 348 348 349 347 343 341 343 344 345 344 344 343 341
347 346 345 343 340 347 340 344 344 345 339 343 346 343 333 328 339 345 344 343 344 345 342 344 344 345 345 339 343 344 345 345 346 347 345 342 343 344 345 344 344 343 342
345 346 347 348 345 341 345 342 347 344 344 335 340 348 346 344 334 332 344 343 345 344 342 345 344 343 342 345 345 347 342 342 344 344 344 343 343 344 345 344 344 343 342
346 345 346 345 346 344 341 344 348 345 345 340 339 344 343 342 343 337 331 337 340 340 341 344 341 343 342 340 343 341 340 339 340 341 342 343 343 344 344 344 344 343 343
347 347 345 344 345 344 345 345 343 346 341 337 344 346 343 339 337 337 336 335 333 336 340 342 342 342 339 341 342 340 337 336 335 335 337 339 341 341 343 344 344 342 343
336 348 347 342 344 346 346 347 343 343 344 345 347 347 347 343 344 341 338 334 330 336 334 338 341 339 339 339 339 340 337 333 331 330 331 333 335 337 340 341 343 343 342
333 339 349 343 341 347 343 346 345 345 347 350 349 350 346 345 346 342 340 335 329 330 333 333 340 340 338 336 337 337 334 330 329 327 326 328 330 332 334 336 338 338 339
334 336 339 339 351 351 347 348 347 347 350 351 352 352 347 346 347 345 345 341 331 325 327 336 333 337 338 336 336 334 336 329 329 326 324 324 325 326 328 330 332 333 334
338 338 337 338 343 353 352 352 350 349 348 351 353 349 349 346 349 347 345 343 339 333 325 332 334 337 338 338 334 335 335 330 327 324 324 323 321 322 324 326 327 329 330
337 340 339 339 336 341 353 352 351 351 350 351 349 347 346 349 348 345 343 342 337 335 328 330 335 338 335 333 334 333 333 333 331 323 323 322 319 319 321 322 323 324 325
334 336 338 340 339 336 345 351 351 352 350 349 347 346 347 350 348 345 342 339 336 337 331 327 332 332 332 333 333 331 331 333 333 325 320 319 316 315 316 317 318 319 319
330 333 335 338 339 340 337 347 352 354 349 348 346 347 348 348 346 343 343 340 337 336 336 331 330 332 331 332 331 331 331 330 333 325 320 319 317 317 316 316 314 314 314
329 331 332 335 338 339 341 343 349 352 348 347 349 349 348 347 345 344 341 338 336 334 333 330 330 330 328 331 330 326 323 328 328 332 324 323 319 319 317 315 315 315 312
326 329 331 332 339 337 341 342 347 349 347 347 350 350 348 343 336 340 341 338 336 334 331 330 327 327 326 326 325 327 324 325 327 328 329 325 324 324 320 316 320 317 311
323 327 329 331 336 337 323 320 339 348 347 347 348 348 346 332 329 322 319 322 332 335 331 329 328 325 325 326 328 326 325 321 319 326 327 326 330 326 326 327 317 312 309
322 325 327 331 336 336 317 311 320 348 348 348 348 345 342 340 330 327 317 319 316 319 323 332 328 327 326 329 327 325 325 321 320 325 325 320 327 324 327 323 310 308 307
320 323 326 330 336 337 316 306 315 347 347 346 347 345 342 338 336 335 332 331 330 328 327 330 332 331 331 332 329 329 327 325 325 325 326 317 322 320 322 320 307 307 306
318 322 326 330 335 338 308 306 321 345 343 345 346 345 342 338 315 314 333 330 330 324 309 308 307 306 307 305 315 327 324 322 320 321 325 321 319 318 320 319 314 307 305
318 323 326 331 330 338 303 306 330 344 342 342 343 340 318 334 305 308 334 332 328 327 325 324 323 316 316 314 310 326 325 322 319 318 324 321 320 318 316 320 317 312 311
Wind_Speed
5 5 4 6 7 6 8 7 7 5 7 8 8 7 7 7 5 1 2 13 12 13 13 13 12 12 12 12 12 11 10 11 12 12 11 10 9 9 10 10 10 10 10
6 4 5 4 4 4 6 7 6 6 7 7 7 7 6 5 4 4 3 6 14 13 14 14 14 14 13 11 12 12 11 10 12 12 12 11 11 11 11 12 12 12 12
6 7 5 5 5 4 6 4 4 4 4 3 6 4 3 6 5 6 4 4 6 14 15 14 15 15 14 13 14 13 13 11 11 13 12 12 12 11 12 13 14 15 13
7 5 5 5 5 5 4 4 4 4 4 4 4 5 6 7 7 6 5 5 5 4 12 16 17 16 16 15 15 14 14 12 11 12 12 13 13 12 13 14 14 12 13
11 6 6 4 6 5 5 5 4 5 4 4 6 5 6 6 5 4 6 6 7 5 3 11 14 13 15 16 14 15 14 13 12 12 12 13 14 13 13 14 14 12 13
7 8 6 7 5 5 5 5 6 5 4 4 6 8 6 5 5 5 5 4 5 7 6 4 7 8 15 15 14 16 16 15 13 13 12 13 14 13 14 14 13 14 14
10 9 8 4 7 6 7 4 5 5 2 2 4 5 5 6 6 5 4 5 6 5 6 5 6 5 5 13 15 15 16 15 15 15 13 13 14 14 13 13 14 15 14
11 10 10 10 7 7 6 6 6 4 2 3 5 5 4 2 4 6 4 5 5 4 6 7 9 7 5 4 8 13 14 16 16 15 13 13 14 15 14 14 15 16 16
14 15 14 11 10 6 8 7 5 4 3 5 9 5 4 4 1 2 6 4 5 4 3 5 6 6 6 5 7 8 15 13 16 16 14 13 15 16 15 14 14 15 17
11 11 11 12 12 8 5 7 5 5 5 3 15 10 7 3 2 1 2 4 5 4 2 5 5 5 5 4 7 7 12 12 15 13 12 13 15 16 16 15 14 14 16
13 15 12 14 10 9 10 9 6 6 5 6 18 12 2 4 4 4 4 4 3 4 6 6 5 5 7 5 4 6 14 13 11 10 10 12 14 15 16 16 15 14 16
6 11 15 14 12 11 10 7 4 5 11 15 15 11 6 4 5 4 6 7 4 5 7 4 5 5 6 5 5 6 8 8 7 8 9 10 11 13 15 16 16 16 16
5 9 13 10 9 12 12 11 9 10 19 17 15 11 5 5 4 5 6 5 5 2 3 5 6 5 4 4 6 8 9 8 7 7 8 8 10 11 13 15 16 15 15
6 7 8 13 16 11 9 5 9 14 19 14 16 8 5 5 3 5 5 3 3 1 2 4 4 5 5 5 7 10 6 9 9 8 8 8 9 9 10 12 13 12 11
7 8 7 7 10 9 10 10 12 17 15 14 13 9 8 5 4 4 3 3 4 1 3 5 3 3 5 5 6 5 5 10 8 7 8 9 8 8 9 11 12 11 11
7 9 11 10 10 12 13 13 12 15 16 13 10 11 9 7 6 4 4 3 3 3 3 2 1 3 5 6 5 2 4 8 8 9 8 9 8 7 7 9 10 10 10
9 11 11 12 12 12 13 13 15 16 18 16 12 11 13 9 6 4 4 3 3 3 3 2 3 3 3 4 4 1 3 3 4 9 9 8 8 8 8 9 9 10 11
11 12 14 12 13 14 13 15 17 17 18 15 13 13 13 9 9 6 5 6 4 3 3 4 3 2 2 4 3 3 2 3 3 7 8 7 6 6 5 7 8 9 11
13 14 15 17 16 17 16 16 18 17 14 13 15 14 12 11 9 5 4 5 4 3 3 3 4 3 3 4 3 2 2 1 1 4 5 7 7 7 8 9 8 10 13
15 15 16 18 17 18 17 17 17 15 14 15 15 14 11 11 9 8 6 5 2 3 3 3 3 3 3 3 3 3 2 3 2 2 1 6 7 7 6 6 8 9 12
16 16 16 17 19 18 14 17 18 16 16 15 14 13 10 9 11 9 5 5 6 5 3 3 3 3 3 3 5 3 3 3 1 0 3 3 4 4 3 4 4 10 12
18 18 16 19 20 14 16 19 17 15 17 15 12 11 8 9 10 15 12 5 6 6 4 4 3 3 5 4 3 4 3 2 3 3 3 1 3 3 4 4 8 9 12
17 19 17 19 20 18 17 18 22 15 14 12 12 10 8 8 12 10 8 10 9 8 5 5 4 4 4 6 5 4 5 4 2 2 3 2 2 3 1 3 9 10 10
18 16 16 19 19 17 18 18 22 18 11 12 11 11 9 11 10 11 9 7 6 5 5 3 4 4 3 3 6 7 6 5 5 2 2 3 1 2 2 3 5 9 10
19 17 17 19 20 18 13 20 19 15 13 13 11 10 9 10 12 12 8 7 6 6 6 10 9 8 5 0 5 4 4 6 3 3 3 3 2 2 1 1 2 6 10
19 15 16 18 22 19 13 20 18 12 15 10 10 8 10 10 15 11 6 7 6 8 8 6 4 4 4 2 3 3 4 4 3 2 4 4 3 3 2 2 2 2 3
Wind_Direction
218 184 219 202 184 182 195 206 218 211 208 216 224 228 226 219 235 253 183 175 186 193 195 200 210 227 236 238 229 227 224 219 212 212 211 211 206 198 188 185 187 189 186
181 213 189 223 241 207 194 202 206 208 211 223 223 221 231 227 222 230 213 184 195 201 206 205 210 224 237 239 229 225 221 218 216 213 210 207 208 200 193 188 187 193 187
190 197 187 216 212 248 232 245 248 235 238 280 261 247 224 224 213 220 213 223 194 210 212 212 209 214 226 234 233 218 223 217 218 214 209 207 205 207 201 197 199 205 199
196 189 210 201 212 215 220 222 228 250 238 224 248 227 221 223 211 205 196 207 223 212 219 213 212 215 221 225 235 225 216 217 221 224 212 205 207 208 207 210 213 209 203
195 213 211 229 199 227 223 213 219 225 238 239 234 217 233 211 207 204 206 217 211 226 232 208 213 217 228 228 228 231 216 214 219 220 221 210 209 209 212 212 211 202 195
189 194 226 223 215 218 235 218 215 220 226 241 238 246 222 215 193 213 213 230 217 204 231 176 182 213 227 241 232 219 219 214 216 215 220 215 212 210 210 213 202 201 193
204 205 215 215 245 227 240 243 242 213 253 283 282 273 251 212 208 215 197 211 218 228 212 169 175 202 206 236 232 214 223 221 219 214 214 214 209 209 207 205 198 194 196
192 207 212 208 223 237 240 241 250 236 150 241 241 258 266 253 219 209 209 225 227 223 214 187 195 199 206 197 208 220 222 228 229 218 216 209 203 208 207 203 199 200 202
187 200 197 212 207 214 238 234 238 281 347 265 237 232 277 226 277 144 219 222 244 219 194 209 203 196 191 194 224 216 221 223 237 226 211 209 204 208 208 207 201 201 205
204 209 202 204 206 216 220 236 196 178 161 251 299 237 214 171 186 236 152 217 235 239 163 204 192 199 209 201 208 187 195 205 220 222 221 213 205 209 209 210 202 196 201
214 204 199 211 195 197 217 227 181 179 217 169 228 249 212 176 188 200 272 225 179 185 223 216 175 196 206 192 207 183 179 195 206 211 217 215 209 211 208 208 206 197 200
240 225 208 212 197 203 215 177 183 262 220 241 243 261 204 170 177 183 228 246 202 226 208 135 216 187 210 179 140 154 166 171 192 215 219 212 213 214 208 206 210 209 211
270 222 212 209 204 206 193 180 176 234 246 236 235 238 234 195 158 181 210 244 231 170 173 199 193 195 187 151 160 150 166 179 197 204 216 218 216 216 204 204 207 208 212
256 255 209 222 226 202 211 189 186 219 234 236 234 237 246 209 190 189 221 192 273 158 162 190 166 175 157 136 153 154 170 193 191 201 214 222 222 216 207 204 200 205 203
276 274 276 252 233 234 228 214 217 221 223 235 226 220 220 246 207 210 196 186 186 238 240 216 143 172 121 120 153 187 191 182 181 202 211 216 215 214 204 201 204 195 201
268 276 286 289 301 225 222 218 219 231 236 232 217 210 212 218 229 191 196 189 192 174 235 151 119 143 123 120 148 258 105 158 187 204 211 216 214 216 206 200 197 189 194
269 266 253 265 264 273 217 222 223 227 226 221 207 198 215 212 214 187 200 171 219 213 191 47 106 101 71 103 147 90 139 206 190 211 218 210 209 211 206 201 193 182 188
278 279 280 255 249 249 247 220 231 228 220 208 209 206 207 204 208 191 174 196 205 221 149 137 139 138 174 168 169 171 228 297 341 185 219 230 216 206 193 188 187 185 175
269 272 269 265 250 240 235 233 230 219 208 207 213 208 196 192 195 179 182 193 201 152 151 150 154 144 152 163 150 150 192 234 134 154 198 211 209 195 196 198 195 193 182
264 262 266 271 250 253 229 233 225 216 213 209 208 202 191 189 188 185 176 198 249 161 163 126 120 130 147 132 157 165 177 223 227 219 126 173 174 173 182 192 204 197 187
264 264 262 266 262 245 235 218 222 212 207 213 197 188 189 182 179 165 161 185 189 199 176 139 143 137 172 142 192 196 183 181 176 194 176 162 156 151 139 180 198 194 182
262 257 260 264 265 250 234 204 206 202 206 205 184 180 169 154 156 128 110 144 193 176 178 141 168 177 199 192 169 178 155 171 210 232 196 149 143 154 143 185 177 178 181
261 255 256 262 263 244 229 211 192 198 201 186 172 169 160 160 137 129 119 110 86 92 112 161 176 198 194 192 169 188 202 182 210 161 151 94 12 83 298 143 152 166 167
269 256 259 261 258 247 230 204 192 193 179 180 168 169 170 154 154 153 154 151 149 151 152 181 189 196 201 222 179 190 188 157 94 130 185 136 140 97 18 58 128 155 159
272 261 255 258 253 243 217 191 186 168 177 179 159 173 165 148 157 165 161 167 166 119 71 89 92 94 110 51 244 153 181 160 148 162 198 113 138 111 108 87 114 154 165
264 264 262 260 248 238 183 192 168 163 168 161 158 158 165 160 159 177 167 163 155 153 151 136 113 87 124 104 160 134 146 176 127 126 186 145 137 141 144 155 152 154 160